Date,TemperatureHighF,TemperatureAvgF,TemperatureLowF,DewpointHighF,DewpointAvgF,DewpointLowF,HumidityHigh,HumidityAvg,HumidityLow,PressureMaxIn,PressureMinIn,WindSpeedMaxMPH,WindSpeedAvgMPH,GustSpeedMaxMPH,PrecipitationSumIn
2013-1-1,50.5,48.1,44.9,48.8,37.8,24.4,94,70,39,30.04,29.86,0,0,0,0.15
2013-1-2,50.4,42.7,40.1,48.7,38.8,36.4,95,86,75,30.12,29.84,0,0,0,0.30
2013-1-3,40.2,39.4,38.9,38.0,36.6,33.9,92,89,79,30.17,30.08,0,0,0,0.00
2013-1-8,55.6,48.8,43.1,39.1,37.6,32.9,84,67,45,30.35,30.30,0,0,0,0.00
2013-1-9,69.6,52.6,36.9,48.7,43.0,34.8,93,72,44,30.37,30.27,0,0,0,0.00
2013-1-10,51.6,51.1,50.8,47.6,47.2,46.7,88,87,86,30.35,30.33,0,0,0,0.00
2013-1-11,52.5,48.1,42.8,51.1,41.9,30.3,95,81,52,30.38,30.08,0,0,0,0.20
2013-1-12,73.2,58.5,50.7,62.1,55.0,49.4,96,89,65,30.09,30.03,0,0,0,0.00
2013-1-13,76.3,63.9,55.0,61.0,57.4,53.9,96,81,55,30.06,29.97,0,0,1,0.01
2013-1-14,71.3,65.5,59.2,62.8,59.9,55.9,93,83,71,30.08,30.00,0,0,0,0.01
2013-1-15,62.4,54.6,48.5,60.7,52.1,46.1,94,91,89,30.12,30.03,0,0,0,0.00
2013-1-16,49.8,46.0,43.8,48.7,44.9,42.7,96,96,96,30.01,29.91,0,0,5,0.11
2013-1-17,51.1,46.9,33.1,50.0,45.5,31.4,96,95,91,29.97,29.83,1,0,10,0.86
2013-1-18,46.8,37.4,27.9,32.7,25.4,17.2,95,65,32,30.47,30.00,6,0,9,0.24
2013-1-19,54.7,39.6,26.0,33.6,26.5,21.8,92,64,28,30.45,30.08,1,0,1,0.01
2013-1-20,45.4,44.6,43.2,34.9,34.5,31.4,69,67,66,30.10,30.06,0,0,0,0.00
2013-1-21,59.9,47.1,30.7,30.1,26.5,14.2,86,48,25,30.01,29.79,0,0,0,0.00
2013-1-22,45.4,35.0,25.4,14.2,4.0,-6.5,38,27,14,30.22,29.87,0,0,0,0.00
2013-1-23,41.1,29.1,18.0,14.6,6.2,-1.1,63,39,23,30.31,30.03,0,0,0,0.00
2013-1-24,37.0,32.5,23.8,24.0,13.5,3.2,66,46,24,30.45,29.88,0,0,0,0.00
2013-1-25,27.8,25.7,19.1,25.2,18.6,1.9,90,76,35,30.46,30.04,0,0,0,0.06
2013-1-26,27.6,27.4,27.3,24.8,24.7,24.5,90,89,89,30.05,30.02,0,0,0,0.00
2013-1-27,40.3,30.8,24.2,26.5,24.5,22.2,93,79,55,30.53,30.31,0,0,0,0.00
2013-1-28,53.1,41.7,30.6,46.8,34.0,26.2,84,74,56,30.44,30.14,7,0,13,0.02
2013-1-29,75.3,60.3,49.5,55.7,50.8,46.4,89,73,48,30.14,29.99,7,1,17,0.00
2013-1-30,72.1,66.8,60.1,63.1,60.4,55.8,91,80,69,30.01,29.38,20,2,21,0.01
2013-1-31,69.3,45.9,34.6,62.7,22.0,15.4,87,40,25,29.94,29.31,15,1,25,0.33
2013-2-1,41.8,35.9,25.4,26.8,11.3,-3.3,62,38,20,30.32,29.81,20,1,20,0.00
2013-2-2,44.9,33.3,18.1,34.8,9.9,4.0,74,40,23,30.34,29.95,12,0,12,0.00
2013-2-3,49.2,42.4,35.6,35.3,28.1,21.5,88,59,37,29.97,29.77,6,0,6,0.00
2013-2-4,39.3,32.3,26.4,23.5,21.0,17.6,80,64,42,30.06,29.90,4,0,4,0.00
2013-2-6,63.5,55.3,42.9,33.2,26.3,21.7,52,34,20,30.17,30.04,1,0,9,0.00
2013-2-7,49.4,42.3,36.0,41.6,35.8,29.9,92,78,59,30.26,29.96,2,0,14,0.26
2013-2-8,56.0,46.4,39.6,43.6,39.4,27.2,94,78,47,29.95,29.72,3,0,14,0.82
2013-2-9,53.5,41.8,31.0,27.3,21.4,15.0,74,47,22,30.28,29.95,1,0,10,0.00
2013-2-10,54.2,40.0,27.3,33.1,20.1,16.2,79,49,22,30.42,30.22,0,0,6,0.00
2013-2-11,63.5,60.1,45.4,59.2,55.5,36.5,95,85,65,30.18,29.83,18,1,18,0.05
2013-2-12,64.0,55.1,47.6,53.8,33.5,22.2,86,48,22,30.00,29.82,16,0,16,0.00
2013-2-13,50.7,46.7,43.5,46.1,42.5,32.6,94,86,55,29.87,29.55,15,1,15,0.23
2013-2-14,45.5,40.8,38.8,34.2,32.8,31.9,76,73,70,29.81,29.73,13,1,15,0.00
2013-2-20,53.9,46.7,37.2,23.1,13.9,8.3,52,28,16,30.07,29.92,2,0,4,0.00
2013-2-21,56.5,41.7,25.7,19.8,16.8,12.7,74,40,19,30.15,30.04,4,0,4,0.00
2013-2-22,42.9,36.6,32.1,34.7,29.4,18.6,94,77,38,30.27,30.10,1,0,5,0.32
2013-2-23,43.5,39.6,36.0,42.2,38.3,34.4,95,95,94,30.10,29.76,8,0,11,0.81
2013-2-24,64.0,51.3,43.3,45.7,36.9,25.5,95,64,27,29.93,29.71,0,0,3,0.06
2013-2-25,42.9,39.6,34.9,24.3,21.8,19.0,65,49,41,30.15,30.07,0,0,0,0.00
2013-2-26,57.6,44.9,35.2,56.2,40.2,24.5,96,84,62,30.07,29.49,0,0,0,0.97
2013-2-27,62.0,54.1,43.8,46.6,37.3,32.5,93,55,35,29.70,29.53,0,0,0,0.00
2013-2-28,49.6,43.2,36.0,38.1,31.0,23.2,91,64,36,29.77,29.61,0,0,0,0.00
2013-3-1,51.0,41.4,31.8,30.9,26.8,23.7,80,58,36,29.83,29.75,0,0,0,0.00
2013-3-2,50.5,39.4,28.5,27.3,24.0,18.1,86,56,32,29.84,29.73,0,0,0,0.00
2013-3-3,48.3,37.2,28.7,19.2,17.5,14.8,63,46,28,29.89,29.76,0,0,0,0.00
2013-3-13,58.3,49.5,38.2,23.9,20.6,17.1,45,32,23,30.04,29.86,0,0,0,0.00
2013-3-14,38.2,35.9,34.3,18.8,17.0,15.7,48,46,44,30.08,30.05,0,0,0,0.00
2013-3-20,57.6,50.8,38.8,24.9,16.5,10.5,57,28,16,29.91,29.71,0,0,0,0.00
2013-3-21,47.0,40.5,32.1,31.4,17.7,7.8,68,41,24,29.89,29.64,0,0,0,0.00
2013-3-22,55.0,47.5,23.9,20.0,12.7,6.5,62,26,16,30.00,29.87,0,0,0,0.00
2013-3-23,59.0,47.0,38.3,31.7,23.3,15.2,69,41,24,29.97,29.82,0,0,0,0.00
2013-3-24,40.5,38.3,35.3,37.2,33.9,29.1,93,84,69,29.85,29.50,0,0,0,0.71
2013-3-25,49.8,41.1,35.3,36.6,28.7,19.3,94,66,32,29.72,29.47,0,0,0,0.01
2013-3-26,52.0,43.3,34.3,28.0,25.0,21.5,67,49,34,30.01,29.72,0,0,0,0.00
2013-3-27,54.5,43.8,35.0,25.8,22.1,17.3,68,44,25,30.14,30.01,0,0,0,0.00
2013-3-28,39.2,35.9,32.5,24.2,23.3,21.8,69,60,50,30.14,30.12,0,0,0,0.00
2013-11-8,70.1,48.9,35.9,39.2,27.6,22.6,78,47,26,30.26,29.83,9,0,17,0.00
2013-11-9,59.9,46.6,32.1,36.2,30.1,24.5,87,56,27,30.32,30.11,6,0,6,0.00
2013-11-10,73.3,57.0,44.5,39.0,33.1,25.8,66,43,21,30.17,29.98,13,0,13,0.00
2013-11-11,61.5,47.3,33.1,35.1,29.3,24.4,86,54,26,30.29,30.07,3,0,3,0.00
2013-11-12,62.0,44.1,35.5,36.7,31.1,15.5,87,63,31,30.35,29.99,17,0,17,0.01
2013-11-13,47.0,35.5,27.0,21.6,16.9,12.9,79,49,26,30.47,30.35,2,0,2,0.00
2013-11-14,57.3,53.0,26.0,22.7,19.0,16.6,85,29,21,30.41,30.31,1,0,1,0.00
2013-11-15,64.5,55.1,30.7,48.8,34.8,-3.6,91,52,22,30.31,30.14,0,0,0,0.02
2013-11-16,69.1,57.0,51.1,57.3,52.9,48.8,95,87,64,30.20,30.13,0,0,0,0.00
2013-11-17,72.0,62.2,53.9,65.6,57.3,52.5,96,85,62,30.15,29.80,6,0,6,0.07
2013-11-18,76.8,67.0,54.2,66.2,57.0,28.2,95,74,30,29.89,29.71,15,0,15,0.04
2013-11-19,57.8,49.8,41.8,30.0,26.9,23.3,60,42,27,30.26,29.88,3,0,3,0.00
2013-11-20,53.5,44.8,37.6,38.2,31.4,26.4,80,60,44,30.38,30.25,3,0,3,0.00
2013-11-21,62.6,50.7,42.2,48.2,42.6,36.8,87,74,57,30.43,30.31,3,0,3,0.00
2013-11-22,73.0,60.1,47.3,60.0,53.3,44.0,93,79,59,30.33,29.99,5,0,5,0.03
2013-11-23,62.3,55.5,42.1,60.0,41.6,19.4,94,62,32,30.11,29.96,9,0,9,0.01
2013-11-24,42.1,33.4,24.5,21.6,7.8,0.5,51,35,20,30.49,30.10,9,0,12,0.00
2013-11-25,43.6,32.2,19.7,13.0,7.0,2.6,72,37,18,30.54,30.28,6,0,6,0.00
2013-11-26,66.3,47.1,36.5,64.8,37.3,10.1,96,72,33,30.33,29.47,15,0,15,0.61
2013-11-27,66.4,40.7,30.1,64.9,35.7,15.5,96,83,54,30.13,29.43,11,0,11,1.07
2013-11-28,46.1,33.1,23.6,23.6,18.2,13.8,84,56,30,30.44,30.09,0,0,0,0.00
2013-11-29,52.0,36.5,23.6,26.7,23.1,20.0,92,63,31,30.58,30.42,10,0,10,0.00
2013-11-30,50.8,37.5,28.4,32.5,27.8,21.9,85,69,48,30.58,30.28,5,0,5,0.00
2013-12-1,62.1,44.2,28.2,38.7,31.6,26.2,93,66,27,30.31,29.93,6,0,6,0.00
2013-12-2,60.7,46.8,38.9,42.7,39.0,33.5,92,76,39,29.96,29.75,6,0,6,0.00
2013-12-3,58.4,47.8,34.4,46.2,40.1,32.8,95,76,55,29.93,29.80,7,0,7,0.00
2013-12-4,66.4,57.2,52.3,56.7,51.8,46.1,93,82,67,30.03,29.92,7,0,7,0.00
2013-12-5,67.9,61.9,54.7,63.1,59.1,52.7,96,91,80,30.07,29.96,5,0,5,0.01
2013-12-6,78.6,70.7,65.0,63.6,62.1,60.6,90,75,55,30.01,29.89,0,0,0,0.00
2013-12-7,69.8,49.3,42.1,63.9,42.7,29.1,93,78,64,30.40,29.92,0,0,0,0.23
2013-12-8,42.1,35.5,33.2,32.6,31.1,27.4,94,85,61,30.40,30.21,0,0,0,0.09
2013-12-9,46.4,40.2,34.1,45.1,39.0,32.6,96,96,94,30.24,29.97,0,0,0,0.16
2013-12-10,46.8,43.1,29.4,45.7,39.7,24.3,96,88,63,30.27,29.86,10,0,10,0.58
2013-12-11,51.0,37.0,25.1,28.0,23.7,16.1,93,63,27,30.39,30.21,9,0,9,0.00
2013-12-12,46.0,36.4,26.7,27.2,20.0,8.6,77,54,22,30.35,30.20,12,0,12,0.00
2013-12-13,52.8,37.6,24.2,28.6,20.4,13.5,82,54,23,30.33,30.21,6,0,6,0.00
2013-12-14,47.6,41.2,37.9,40.9,34.7,25.1,95,79,44,30.24,29.68,12,1,12,0.87
2013-12-15,54.4,44.0,36.2,43.8,35.6,26.3,96,75,44,30.01,29.65,12,0,12,0.03
2013-12-16,56.5,41.7,29.3,35.0,30.3,25.6,89,67,37,30.11,30.00,4,0,4,0.00
2013-12-17,62.6,48.8,32.5,39.3,34.2,29.6,93,61,31,30.06,29.81,9,0,9,0.00
2013-12-18,50.2,40.6,30.6,37.7,22.5,14.8,82,51,25,30.23,29.96,6,0,6,0.00
2013-12-19,63.4,46.1,27.5,31.3,24.0,20.6,84,48,20,30.26,30.15,12,0,12,0.00
2013-12-20,67.9,56.0,42.9,52.6,44.1,29.6,85,65,46,30.17,30.04,14,0,14,0.00
2013-12-21,73.7,61.7,50.1,64.9,55.3,46.4,94,80,59,30.09,29.97,20,1,20,0.00
2013-12-22,79.4,71.2,64.5,65.7,63.6,60.0,92,78,57,30.05,29.95,21,2,21,0.09
2013-12-23,67.6,60.4,46.8,65.7,57.9,38.2,96,91,77,30.09,29.93,11,0,11,1.00
2013-12-24,47.0,41.0,29.4,41.3,27.7,12.0,91,60,42,30.40,30.05,0,0,0,0.00
2013-12-25,40.6,30.2,23.9,18.5,12.0,6.1,76,49,26,30.50,30.33,0,0,0,0.00
2013-12-26,53.2,37.6,24.5,32.5,27.0,18.2,90,67,35,30.35,30.18,0,0,0,0.06
2013-12-27,54.2,39.6,27.8,25.9,21.3,16.5,78,51,24,30.40,30.30,0,0,0,0.00
2013-12-28,61.2,42.3,26.6,36.6,27.4,20.8,90,61,23,30.35,30.03,0,0,0,0.00
2013-12-29,64.2,50.0,44.5,63.0,46.6,35.4,96,88,65,30.10,29.61,0,0,0,1.59
2013-12-30,54.8,46.3,38.6,41.8,38.8,34.3,96,76,55,30.08,29.86,1,0,7,0.01
2013-12-31,51.6,42.5,32.8,35.4,28.7,19.9,86,61,29,30.30,30.06,1,0,9,0.00
2014-1-1,51.3,40.2,30.6,32.9,25.4,18.0,87,60,27,30.37,30.08,0,0,5,0.00
2014-1-2,48.5,45.6,38.6,45.7,40.2,32.6,95,82,62,30.06,29.51,11,0,11,0.32